[[{"header":{"parameterUnit":"m.s-1","parameterCategory":1,"la1":30.2991,"la2":30.254,"lo1":-89.0895,"lo2":-89.0444,"dx":0.0017,"dy":0.0017,"nx":28,"ny":28,"refTime":"2022-11-29T09:00:00:Z","depth":0,"parameterNumber":2,"parameterNumberName":"U-component_of_WINDS"},"data":[0,0,0,0,0,0,0,0,0,0,0,0,0,0,0,0,0,0,0,0,0,0,0,0,0,0,0,0,0,0,0,0,0,0,0,0,0,0,0,0,0,0,0,0,0,0,0,0,0,0,0,0,0,0,0,0,0,0,-0.9993,-0.9994,0,-1.0069,-1.007,-1.0071,-1.0072,-1.0071,-1.007,-1.0069,-1.0151,-1.0154,-1.0157,0,0,0,0,0,0,0,0,0,0,0,0,0,-0.9854,-0.9856,-0.9993,-0.9994,-0.9995,-1.0069,-1.007,-1.0071,-1.0072,-1.0071,-1.007,-1.0069,-1.015,-1.0154,-1.0158,0,0,0,0,0,0,0,0,0,0,0,0,0,-0.992,-0.9857,-0.9993,-1.0004,-1.0006,-1.0068,-1.007,-1.0071,-1.0072,-1.0071,-1.0069,-1.0068,-1.0149,-1.0154,-1.0158,-1.0216,0,0,-1.0172,-1.0174,0,0,0,0,0,0,0,0,-0.9917,-0.9926,-1.0002,-1.0004,-1.0006,-1.0059,-1.0051,-1.012,-1.0073,-1.0047,-1.0069,-1.0067,-1.0122,-1.0129,-1.0146,-1.0219,-1.0223,-1.0173,-1.0176,-1.0178,-1.0179,0,0,0,0,0,0,0,-0.9912,-0.9922,-1.0023,-1.0003,-1.0005,-1.0007,-1.0015,-1.0064,-1.0092,-1.0049,-1.005,-1.0058,-1.0123,-1.0142,-1.0148,-1.0224,-1.0173,-1.0177,-1.018,-1.0181,-1.0349,-1.035,0,0,0,0,0,0,-0.9904,-0.9918,-1.0021,-1.0025,-0.9957,-1.0011,-1.002,-1.0044,-1.0092,-1.0097,-1.006,-1.0058,-1.0135,-1.0143,-1.0151,-1.0223,-1.0177,-1.0182,-1.0184,-1.0347,-1.0349,-1.0351,0,0,0,0,0,0,-0.9901,-0.9914,-1.0018,-0.9972,-0.9985,-1.0015,-1.0042,-1.0046,-1.0065,-1.0099,-1.0105,-1.0074,-1.0134,-1.0145,-1.0199,-1.0225,-1.0184,-1.0188,-1.0345,-1.0348,-1.035,-1.0365,0,0,0,0,0,0,-0.9897,-0.9912,-0.9934,-0.9972,-0.9988,-1.0063,-1.0043,-1.0048,-1.0072,-1.0071,-1.0114,-1.0119,-1.0134,-1.0192,-1.0204,-1.0231,-1.0192,-1.0343,-1.0346,-1.0349,-1.0362,-1.0367,-1.0372,0,0,0,0,0,-0.9892,-0.9936,-0.9935,-0.9947,-1.0015,-1.0065,-1.0074,-1.0088,-1.0074,-1.0097,-1.0119,-1.0118,-1.022,-1.0198,-1.0211,-1.024,-1.0341,-1.0345,-1.0349,-1.036,-1.0366,-1.0372,0,0,0,0,0,0,-0.9901,-0.9941,-0.994,-0.9997,-1.0027,-1.0065,-1.0094,-1.0094,-1.0131,-1.0128,-1.0146,-1.0155,-1.021,-1.023,-1.0205,-1.0298,-1.0279,-1.0286,-1.0283,-1.029,-1.0294,-1.0289,-1.0196,0,0,0,0,0,-0.9909,-0.9945,-0.9979,-1.0026,-1.0041,-1.0064,-1.0087,-1.0095,-1.0128,-1.0141,-1.0167,-1.02,-1.0239,-1.0265,-1.0304,-1.0364,-1.0374,-1.039,-1.0395,-1.0399,-1.0405,-1.044,-1.0448,-1.0363,-1.0363,-1.0363,0,0,-0.9927,-0.9954,-0.9976,-1.0028,-1.0052,-1.0091,-1.0075,-1.0116,-1.0146,-1.0148,-1.0201,-1.0221,-1.0259,-1.0317,-1.0344,-1.0335,-1.0431,-1.0404,-1.0407,-1.0411,-1.0445,-1.0453,-1.046,-1.0366,-1.0365,-1.0365,0,0,-0.998,-1.0003,-1.0045,-1.0069,-1.0105,-1.0121,-1.0131,-1.0168,-1.0181,-1.0234,-1.0236,-1.0272,-1.0339,-1.0366,-1.0389,-1.0451,-1.0452,-1.0463,-1.0489,-1.0523,-1.053,-1.0536,-1.0559,-1.0567,-1.0468,-1.0468,-1.0468,0,-0.9999,-1.0055,-1.0067,-1.0108,-1.0131,-1.0133,-1.0176,-1.02,-1.0247,-1.0264,-1.0254,-1.0338,-1.0364,-1.0429,-1.0444,-1.0461,-1.0475,-1.0459,-1.0527,-1.0533,-1.0539,-1.0562,-1.0571,-1.0469,-1.0469,-1.0469,-1.0469,0,-1.0076,-1.0115,-1.0145,-1.019,-1.0216,-1.0258,-1.0278,-1.0303,-1.0309,-1.0326,-1.038,-1.041,-1.0455,-1.0471,-1.0477,-1.0537,-1.0531,-1.0523,-1.0505,-1.0548,-1.057,-1.0579,-1.0471,-1.0471,-1.047,-1.047,0,0,-1.0139,-1.0188,-1.0199,-1.0219,-1.0259,-1.029,-1.0332,-1.0374,-1.0397,-1.0429,-1.0466,-1.0523,-1.0516,-1.0542,-1.0551,-1.058,-1.0629,-1.057,-1.0571,-1.0581,-1.0698,-1.0704,-1.0714,-1.0629,-1.063,-1.0632,-1.0695,0,-1.0197,-1.0271,-1.0282,-1.0348,-1.0385,-1.0387,-1.0424,-1.0453,-1.0469,-1.0504,-1.0523,-1.0563,-1.055,-1.0566,-1.0595,-1.0617,-1.0653,-1.0612,-1.0666,-1.0667,-1.0658,-1.0725,-1.0732,-1.0791,-1.0703,-1.0705,-1.0706,0,-1.0276,-1.0309,-1.0378,-1.0412,-1.0428,-1.0461,-1.0501,-1.0533,-1.0566,-1.0576,-1.0604,-1.061,-1.0655,-1.0633,-1.0697,-1.0669,-1.0691,-1.0705,-1.0708,-1.0715,-1.0691,-1.0736,-1.0809,-1.0819,-1.0719,-1.0718,-1.0717,0,-1.0316,-1.0378,-1.0427,-1.0444,-1.0485,-1.0509,-1.0527,-1.0559,-1.0583,-1.0618,-1.0634,-1.0674,-1.0697,-1.0728,-1.0745,-1.0727,-1.0808,-1.0787,-1.0819,-1.0819,-1.0838,-1.0837,-1.0918,-1.0849,-1.0849,-1.0849,-1.0849,0,-1.0381,-1.0424,-1.0446,-1.0477,-1.0525,-1.0537,-1.0585,-1.0603,-1.0631,-1.0666,-1.0669,-1.0703,-1.0722,-1.0758,-1.0772,-1.0823,-1.0833,-1.0843,-1.0847,-1.0844,-1.0843,-1.0861,-1.0858,-1.0851,-1.0851,-1.085,-1.085,0,-1.0436,-1.0452,-1.0506,-1.054,-1.0549,-1.0583,-1.0613,-1.0643,-1.0659,-1.0703,-1.0715,-1.074,-1.0783,-1.0802,-1.0855,-1.0864,-1.0923,-1.0923,-1.0912,-1.0914,-1.0945,-1.0943,-1.1042,-1.1056,-1.0976,-1.0977,-1.0977,0,-1.0477,-1.051,-1.0546,-1.0569,-1.0588,-1.0625,-1.065,-1.0663,-1.0689,-1.0729,-1.0755,-1.0797,-1.0832,-1.0901,-1.0925,-1.0966,-1.0968,-1.1,-1.0975,-1.0971,-1.0971,-1.0969,-1.0973,-1.1005,-1.1006,-1.1007,-1.1007,0,-1.055,-1.0556,-1.059,-1.0627,-1.0656,-1.0687,-1.0717,-1.0735,-1.0754,-1.0783,-1.0826,-1.0853,-1.0906,-1.0949,-1.0991,-1.1012,-1.1014,-1.1015,-1.1025,-1.1023,-1.1016,-1.1022,-1.0927,-1.1013,-1.1012,-1.1012,-1.1012,-1.1011,-1.06,-1.063,-1.066,-1.0698,-1.0721,-1.0749,-1.0779,-1.0798,-1.0833,-1.0877,-1.0883,-1.0929,-1.0962,-1.1018,-1.104,-1.1078,-1.107,-1.1084,-1.1088,-1.1092,-1.1095,-1.1008,-1.1085,-1.1085,-1.1085,-1.1085,-1.1085,0,-1.0675,-1.0693,-1.0728,-1.0769,-1.08,-1.0795,-1.0828,-1.0855,-1.0895,-1.0924,-1.0958,-1.1008,-1.1049,-1.1075,-1.1117,-1.1142,-1.1144,-1.1153,-1.1153,-1.1158,-1.1098,-1.1086,-1.1151,-1.1151,-1.1151,-1.1151,-1.1151,-1.1151,-1.0717,-1.0766,-1.0776,-1.0837,-1.0856,-1.09,-1.092,-1.0945,-1.0969,-1.1024,-1.1057,-1.1073,-1.1102,-1.1146,-1.1184,-1.1191,-1.1207,-1.1217,-1.1224,-1.1168,-1.1162,-1.1155,-1.1144,-1.122,-1.122,-1.128,-1.1281,-1.1281]},{"header":{"parameterUnit":"m.s-1","parameterCategory":1,"la1":30.2991,"la2":30.254,"lo1":-89.0895,"lo2":-89.0444,"dx":0.0017,"dy":0.0017,"nx":28,"ny":28,"refTime":"2022-11-29T09:00:00:Z","depth":0,"parameterNumber":3,"parameterNumberName":"V-component_of_WINDS"},"data":[0,0,0,0,0,0,0,0,0,0,0,0,0,0,0,0,0,0,0,0,0,0,0,0,0,0,0,0,0,0,0,0,0,0,0,0,0,0,0,0,0,0,0,0,0,0,0,0,0,0,0,0,0,0,0,0,0,0,-7.2826,-7.2827,0,-7.2981,-7.2983,-7.2984,-7.2958,-7.2955,-7.2953,-7.295,-7.3107,-7.3113,-7.312,0,0,0,0,0,0,0,0,0,0,0,0,0,-7.2505,-7.2511,-7.2825,-7.2827,-7.2829,-7.298,-7.2983,-7.2985,-7.2958,-7.2955,-7.2952,-7.2949,-7.3104,-7.3112,-7.312,0,0,0,0,0,0,0,0,0,0,0,0,0,-7.2651,-7.2513,-7.2825,-7.2834,-7.2837,-7.298,-7.2983,-7.2985,-7.2959,-7.2955,-7.2951,-7.2947,-7.3102,-7.3112,-7.3121,-7.3264,0,0,-7.3152,-7.3156,0,0,0,0,0,0,0,0,-7.2642,-7.2662,-7.2831,-7.2834,-7.2837,-7.2946,-7.2927,-7.3079,-7.296,-7.2913,-7.295,-7.2945,-7.3056,-7.307,-7.3108,-7.3272,-7.3278,-7.3153,-7.3159,-7.3163,-7.3166,0,0,0,0,0,0,0,-7.2632,-7.2655,-7.2887,-7.2834,-7.2837,-7.2831,-7.2847,-7.2956,-7.3005,-7.2916,-7.2915,-7.2934,-7.3057,-7.3098,-7.3111,-7.3281,-7.3153,-7.3162,-7.3168,-7.3172,-7.3571,-7.3575,0,0,0,0,0,0,-7.262,-7.2647,-7.2882,-7.2891,-7.2728,-7.284,-7.2858,-7.2915,-7.3004,-7.3014,-7.2937,-7.2932,-7.3083,-7.31,-7.3117,-7.3291,-7.3163,-7.3173,-7.3178,-7.3567,-7.3572,-7.3577,0,0,0,0,0,0,-7.2613,-7.2641,-7.2876,-7.2769,-7.2798,-7.2849,-7.2914,-7.292,-7.2961,-7.302,-7.3028,-7.297,-7.308,-7.3102,-7.3228,-7.3296,-7.3177,-7.3186,-7.3561,-7.3568,-7.3575,-7.364,0,0,0,0,0,0,-7.2604,-7.2639,-7.2694,-7.2771,-7.2804,-7.2985,-7.2918,-7.2926,-7.2979,-7.2974,-7.3053,-7.3062,-7.3079,-7.3214,-7.3238,-7.3308,-7.3194,-7.3555,-7.3564,-7.3572,-7.3632,-7.3648,-7.3662,0,0,0,0,0,-7.2592,-7.2705,-7.2697,-7.2725,-7.2874,-7.2989,-7.3009,-7.3027,-7.2984,-7.304,-7.3078,-7.3059,-7.3284,-7.3227,-7.3254,-7.3328,-7.3551,-7.3562,-7.3572,-7.3625,-7.3645,-7.3662,0,0,0,0,0,0,-7.2634,-7.2715,-7.2707,-7.2848,-7.2912,-7.2985,-7.3055,-7.3047,-7.3124,-7.3115,-7.3134,-7.3152,-7.328,-7.3316,-7.325,-7.3471,-7.3412,-7.3428,-7.3443,-7.3462,-7.3477,-7.3466,-7.3203,0,0,0,0,0,-7.2659,-7.2746,-7.2813,-7.2931,-7.2963,-7.3004,-7.3055,-7.3063,-7.313,-7.3157,-7.3204,-7.3269,-7.3354,-7.341,-7.3492,-7.3637,-7.3654,-7.3701,-7.3716,-7.3728,-7.3742,-7.3823,-7.3845,-7.3611,-7.3611,-7.3611,0,0,-7.2713,-7.2768,-7.2822,-7.294,-7.2991,-7.3081,-7.3027,-7.3124,-7.3191,-7.3171,-7.3294,-7.333,-7.3404,-7.3541,-7.3603,-7.3575,-7.3811,-7.3741,-7.3751,-7.3758,-7.3836,-7.3858,-7.3877,-7.3618,-7.3617,-7.3616,0,0,-7.2856,-7.2907,-7.3011,-7.3064,-7.3142,-7.3168,-7.3193,-7.3268,-7.3292,-7.3415,-7.3403,-7.3482,-7.3629,-7.3683,-7.3729,-7.3895,-7.3881,-7.3921,-7.3999,-7.4078,-7.4096,-7.4112,-7.4172,-7.4193,-7.3934,-7.3934,-7.3935,0,-7.2913,-7.3048,-7.3066,-7.3165,-7.3218,-7.3206,-7.3312,-7.3361,-7.3462,-7.3498,-7.3465,-7.365,-7.3699,-7.3848,-7.3889,-7.3927,-7.3956,-7.3912,-7.4092,-7.4109,-7.4124,-7.4182,-7.4204,-7.3939,-7.3938,-7.3938,-7.3937,0,-7.3114,-7.3208,-7.3283,-7.3382,-7.3443,-7.3545,-7.3578,-7.3638,-7.3641,-7.3671,-7.3797,-7.3856,-7.3949,-7.3985,-7.3989,-7.4136,-7.4116,-7.4088,-7.4028,-7.4151,-7.4205,-7.4227,-7.3945,-7.3944,-7.3942,-7.3941,0,0,-7.3288,-7.3396,-7.3423,-7.3469,-7.3555,-7.3627,-7.3729,-7.3822,-7.3873,-7.3943,-7.4029,-7.4154,-7.4128,-7.4181,-7.4191,-7.4259,-7.4388,-7.4223,-7.4225,-7.4252,-7.4554,-7.4576,-7.4601,-7.4379,-7.4384,-7.4387,-7.4549,0,-7.344,-7.3621,-7.364,-7.3801,-7.3888,-7.3879,-7.3967,-7.4029,-7.406,-7.4139,-7.4172,-7.4261,-7.422,-7.4253,-7.432,-7.4358,-7.4449,-7.4347,-7.4459,-7.4463,-7.4442,-7.4629,-7.4652,-7.4802,-7.457,-7.4573,-7.4576,0,-7.3642,-7.3719,-7.3889,-7.3964,-7.4002,-7.4081,-7.4169,-7.4244,-7.4314,-7.4332,-7.4392,-7.4393,-7.4497,-7.4434,-7.4578,-7.4508,-7.4555,-7.4581,-7.4587,-7.4599,-7.4527,-7.4647,-7.485,-7.4873,-7.4609,-7.4607,-7.4604,0,-7.3753,-7.3899,-7.402,-7.4059,-7.4149,-7.4205,-7.4245,-7.4312,-7.4367,-7.4443,-7.4479,-7.4566,-7.4614,-7.4681,-7.4705,-7.4657,-7.4849,-7.4787,-7.4867,-7.4866,-7.4908,-7.4905,-7.5123,-7.4938,-7.4937,-7.4937,-7.4936,0,-7.3921,-7.4026,-7.4071,-7.4146,-7.4263,-7.4284,-7.4399,-7.4437,-7.4496,-7.4578,-7.4574,-7.465,-7.4678,-7.4759,-7.4778,-7.4895,-7.4917,-7.4934,-7.4938,-7.4935,-7.4933,-7.4966,-7.4957,-7.4943,-7.4941,-7.494,-7.4939,0,-7.4065,-7.4099,-7.4231,-7.4306,-7.4327,-7.4411,-7.4475,-7.4547,-7.4577,-7.468,-7.4705,-7.4753,-7.4848,-7.4879,-7.4993,-7.5006,-7.5144,-7.5138,-7.512,-7.5121,-7.5199,-7.5192,-7.5446,-7.5481,-7.5272,-7.5274,-7.5276,0,-7.417,-7.4251,-7.4335,-7.439,-7.4433,-7.4521,-7.4578,-7.4602,-7.4661,-7.4748,-7.481,-7.4904,-7.4981,-7.5134,-7.5178,-7.5266,-7.5263,-7.5346,-7.5276,-7.5271,-7.5265,-7.526,-7.5269,-7.5359,-7.5361,-7.5363,-7.5364,0,-7.4355,-7.4368,-7.445,-7.454,-7.4608,-7.4678,-7.4747,-7.4792,-7.4826,-7.4893,-7.4991,-7.5051,-7.5168,-7.5263,-7.5352,-7.5393,-7.5385,-7.5386,-7.5409,-7.5407,-7.5394,-7.5403,-7.5157,-7.538,-7.5379,-7.5378,-7.5377,-7.5376,-7.4483,-7.4555,-7.4626,-7.4718,-7.4772,-7.4837,-7.4909,-7.4948,-7.5031,-7.513,-7.5138,-7.5244,-7.5313,-7.5434,-7.5479,-7.5562,-7.5538,-7.5571,-7.558,-7.5588,-7.5594,-7.5381,-7.5578,-7.5577,-7.5577,-7.5577,-7.5576,0,-7.4668,-7.4713,-7.4798,-7.4895,-7.4967,-7.4954,-7.503,-7.5091,-7.5185,-7.525,-7.5327,-7.544,-7.5532,-7.5583,-7.5675,-7.5731,-7.573,-7.5755,-7.5751,-7.5761,-7.561,-7.5581,-7.5754,-7.5754,-7.5754,-7.5754,-7.5754,-7.5754,-7.4772,-7.4893,-7.4916,-7.5064,-7.5108,-7.5213,-7.5257,-7.5317,-7.5369,-7.5496,-7.5573,-7.5606,-7.5667,-7.5763,-7.5846,-7.5859,-7.5893,-7.5921,-7.5931,-7.5789,-7.5771,-7.5754,-7.5727,-7.5928,-7.5928,-7.6075,-7.6076,-7.6077]}]]